User: anonymous   Login
Location: Unspecified
(0.0000°N, 0.0000°E)
Time: 20:01:03
(UTC+02:00)
Language:

YAOGAN 3 - Orbit

View from above orbital plane
View from above orbital plane
View from above satellite
View from above satellite

Ground track
Ground track

The orbit data is extracted from the following two-line orbital elements,

1 32289U 07055A   15242.06102903  .00000181  00000-0  30491-4 0  9997
2 32289 097.9686 235.8137 0000925 075.6041 284.5271 14.80531126421499
Epoch (UTC): 30 August 2015 01:27:52
Eccentricity: 0.0000925
inclination: 97.9686°
perigee height: 627 km
apogee height: 628 km
right ascension of ascending node: 235.8137°
argument of perigee: 75.6041°
revolutions per day: 14.80531126
mean anomaly at epoch: 284.5271°
orbit number at epoch: 42149

The dashed part of the orbit path shows where the satellite is in the earth's shadow,  

DLR